HB9HFD-13 Weather Reports


time (UTC)temp
C
wind
direction
speed
KPH
gust
KPH
rain 1hr
cm
rain 24hr
cm
rain mn
cm
humidity
%
barometer
mb
20260506195630 11 311 0.0 0.0 0.00 1.63 1.55 81 1009.4
20260506195130 11 311 0.0 0.0 0.00 1.63 1.55 81 1009.4
20260506194630 11 311 0.0 0.0 0.00 1.63 1.55 82 1009.4
20260506194130 11 311 0.0 0.0 0.00 1.63 1.55 82 1009.3
20260506193629 11 311 0.0 0.0 0.00 1.63 1.55 83 1009.2
20260506193129 11 311 0.0 0.0 0.00 1.63 1.55 83 1009.1
20260506192629 11 311 0.0 0.0 0.00 1.63 1.55 83 1009.0
20260506192129 11 311 0.0 0.0 0.00 1.63 1.55 83 1008.9
20260506191628 11 311 0.0 0.0 0.00 1.63 1.55 83 1008.8
20260506191128 11 311 0.0 0.0 0.00 1.63 1.55 81 1008.7
20260506190628 11 311 0.0 0.0 0.00 1.63 1.55 82 1008.6
20260506190127 11 311 0.0 0.0 0.00 1.63 1.55 82 1008.6
20260506185627 11 311 0.0 0.0 0.00 1.63 1.55 82 1008.6
20260506185127 11 311 0.0 1.6 0.00 1.63 1.55 82 1008.5
20260506184627 11 311 0.0 0.0 0.00 1.63 1.55 82 1008.5
20260506184126 11 311 0.0 0.0 0.00 1.63 1.55 81 1008.4
20260506183626 12 311 0.0 1.6 0.00 1.63 1.55 80 1008.4
20260506183126 12 314 0.0 3.2 0.00 1.63 1.55 79 1008.3
20260506182626 12 314 0.0 0.0 0.00 1.63 1.55 79 1008.4
20260506182125 12 314 0.0 0.0 0.00 1.63 1.55 79 1008.3
20260506181625 12 314 0.0 0.0 0.00 1.63 1.55 79 1008.4
20260506181125 12 314 0.0 0.0 0.00 1.63 1.55 78 1008.3
20260506180624 12 314 0.0 0.0 0.00 1.63 1.55 78 1008.3
20260506180124 12 314 0.0 0.0 0.00 1.63 1.55 77 1008.2
20260506175624 12 314 0.0 1.6 0.00 1.70 1.55 77 1008.2
20260506175124 12 314 0.0 0.0 0.00 1.70 1.55 77 1008.2
20260506174623 12 314 0.0 1.6 0.00 1.70 1.55 76 1008.1
20260506174123 12 303 0.0 3.2 0.00 1.70 1.55 76 1008.0
20260506173623 12 316 0.0 6.4 0.00 1.70 1.55 76 1008.0
20260506173123 12 306 0.0 4.8 0.00 1.70 1.55 76 1008.0
20260506172622 12 316 1.6 4.8 0.00 1.70 1.55 76 1007.9
20260506172123 12 309 1.6 4.8 0.00 1.70 1.55 76 1007.9
20260506171622 12 309 1.6 3.2 0.00 1.70 1.55 77 1007.9
20260506171122 12 314 0.0 3.2 0.00 1.70 1.55 76 1007.8
20260506170621 12 307 0.0 4.8 0.00 1.70 1.55 75 1007.8
20260506170121 12 328 0.0 3.2 0.00 1.70 1.55 76 1007.8
20260506165621 12 293 0.0 1.6 0.00 1.75 1.55 78 1007.8
20260506165120 12 293 0.0 1.6 0.00 1.75 1.55 79 1007.8
20260506164620 12 320 0.0 0.0 0.00 1.75 1.55 79 1007.9
20260506164120 12 320 0.0 3.2 0.00 1.75 1.55 79 1007.8
20260506163620 12 310 0.0 0.0 0.00 1.75 1.55 80 1007.9
20260506163119 12 309 0.0 3.2 0.00 1.75 1.55 80 1007.9
20260506162619 12 306 0.0 3.2 0.00 1.75 1.55 79 1007.9
20260506162119 12 300 0.0 3.2 0.00 1.75 1.55 78 1007.9
20260506161619 12 311 0.0 6.4 0.00 1.75 1.55 77 1008.0
20260506161118 12 293 0.0 3.2 0.00 1.75 1.55 78 1008.0
20260506160618 12 285 0.0 3.2 0.00 1.75 1.55 77 1008.0
20260506160118 12 311 1.6 4.8 0.00 1.75 1.55 76 1008.0
20260506155618 12 307 1.6 3.2 0.00 1.75 1.55 75 1008.0
20260506155117 13 304 1.6 6.4 0.00 1.75 1.55 73 1008.0
20260506154617 13 307 0.0 3.2 0.00 1.75 1.55 77 1008.1
20260506154117 13 33 0.0 3.2 0.00 1.75 1.55 76 1008.0
20260506153616 13 310 0.0 3.2 0.00 1.75 1.55 78 1008.0
20260506153116 13 310 0.0 4.8 0.00 1.75 1.55 77 1008.1
20260506152616 12 120 0.0 3.2 0.00 1.75 1.55 79 1008.2
20260506152116 12 306 0.0 3.2 0.00 1.75 1.55 79 1008.2
20260506151615 12 269 0.0 3.2 0.00 1.75 1.55 80 1008.0
20260506151115 12 15 0.0 3.2 0.00 1.75 1.55 80 1008.1
20260506150615 12 299 0.0 8.0 0.00 1.75 1.55 77 1008.1
20260506150115 12 319 0.0 0.0 0.00 1.75 1.55 81 1008.2
20260506145614 12 319 0.0 0.0 0.00 1.75 1.55 80 1008.3
20260506145114 12 322 0.0 4.8 0.00 1.75 1.55 81 1008.3
20260506144614 12 309 0.0 3.2 0.00 1.75 1.55 80 1008.3
20260506144113 12 129 0.0 4.8 0.00 1.75 1.55 81 1008.4
20260506143613 11 124 1.6 3.2 0.00 1.75 1.55 82 1008.3
20260506143113 11 309 1.6 4.8 0.00 1.75 1.55 78 1008.3
20260506142613 11 314 1.6 3.2 0.00 1.75 1.55 80 1008.4
20260506142112 11 305 1.6 8.0 0.00 1.75 1.55 80 1008.4
20260506141615 11 266 1.6 8.0 0.00 1.75 1.55 80 1008.4
20260506141112 11 311 3.2 8.0 0.00 1.75 1.55 81 1008.5
20260506140612 11 321 3.2 8.0 0.00 1.75 1.55 82 1008.4
20260506140111 11 290 1.6 8.0 0.00 1.75 1.55 81 1008.5
20260506135611 11 313 3.2 11.3 0.00 1.75 1.55 82 1008.4
20260506135111 11 326 3.2 8.0 0.00 1.75 1.55 82 1008.5
20260506134610 11 311 3.2 11.3 0.00 1.75 1.55 81 1008.5
20260506134110 10 300 1.6 8.0 0.00 1.75 1.55 82 1008.6
20260506133610 10 308 1.6 8.0 0.00 1.75 1.55 83 1008.6
20260506133110 10 300 1.6 4.8 0.00 1.75 1.55 84 1008.5
20260506132609 10 300 3.2 6.4 0.00 1.75 1.55 84 1008.5
20260506132109 10 314 1.6 11.3 0.00 1.75 1.55 84 1008.7
20260506131609 10 307 1.6 6.4 0.00 1.75 1.55 86 1008.5
20260506131109 10 304 3.2 9.7 0.00 1.75 1.55 86 1008.5
20260506130608 10 312 1.6 11.3 0.03 1.75 1.55 85 1008.5
20260506130108 10 312 1.6 4.8 0.03 1.75 1.55 87 1008.4
20260506125608 10 303 1.6 11.3 0.03 1.75 1.55 86 1008.4
20260506125108 10 302 0.0 3.2 0.05 1.75 1.55 89 1008.4
20260506124607 10 313 1.6 3.2 0.05 1.75 1.55 90 1008.4
20260506124107 10 318 1.6 4.8 0.05 1.75 1.55 88 1008.3
20260506123607 10 310 1.6 4.8 0.05 1.75 1.55 89 1008.4
20260506123107 10 303 1.6 6.4 0.05 1.75 1.55 89 1008.3
20260506122606 10 293 0.0 3.2 0.05 1.75 1.55 90 1008.2
20260506122106 10 304 0.0 0.0 0.05 1.75 1.55 91 1008.1
20260506121606 10 304 0.0 6.4 0.05 1.75 1.55 89 1008.1
20260506121105 10 309 1.6 0.0 0.05 1.75 1.55 90 1008.0
20260506120605 10 309 1.6 9.7 0.03 1.73 1.52 87 1008.0
20260506120105 10 314 1.6 6.4 0.03 1.73 1.52 87 1007.9
20260506115605 10 316 1.6 8.0 0.03 1.73 1.52 85 1007.9
20260506115104 10 329 0.0 3.2 0.00 1.70 1.50 90 1007.9
20260506114604 11 120 0.0 1.6 0.00 1.70 1.50 91 1007.8
20260506114104 10 121 0.0 3.2 0.00 1.70 1.50 91 1007.7
20260506113604 11 120 0.0 1.6 0.00 1.70 1.50 92 1007.8
20260506113103 10 120 0.0 3.2 0.00 1.70 1.50 92 1007.8
20260506112603 10 117 0.0 3.2 0.00 1.70 1.50 92 1007.8
20260506112103 10 307 0.0 1.6 0.03 1.70 1.50 92 1007.8
20260506111603 10 127 0.0 1.6 0.03 1.70 1.50 94 1007.8
20260506111102 10 314 0.0 3.2 0.05 1.70 1.50 93 1007.8
20260506110602 10 103 0.0 1.6 0.05 1.70 1.50 94 1007.8
20260506105601 10 278 0.0 1.6 0.10 1.93 1.50 94 1007.8
20260506105101 10 278 0.0 1.6 0.10 1.93 1.50 94 1007.9
20260506104601 10 279 0.0 1.6 0.13 1.93 1.50 94 1007.9
20260506104101 10 120 0.0 0.0 0.13 1.93 1.50 95 1007.9
20260506103600 10 120 0.0 0.0 0.15 1.93 1.50 94 1007.9
20260506103100 10 120 0.0 1.6 0.15 1.93 1.50 94 1007.9
20260506102600 10 120 0.0 0.0 0.18 1.93 1.50 94 1007.9
20260506102100 10 120 0.0 1.6 0.18 1.91 1.47 94 1007.9
20260506101559 10 118 0.0 1.6 0.20 1.91 1.47 95 1007.9
20260506101059 9 118 0.0 0.0 0.20 1.88 1.45 94 1007.9
20260506100559 9 118 0.0 1.6 0.25 1.88 1.45 94 1007.9
20260506100059 9 139 0.0 0.0 0.25 1.85 1.42 94 1007.8
20260506095558 9 321 0.0 0.0 0.28 2.21 1.40 94 1007.8
20260506095058 8 321 0.0 3.2 0.30 2.21 1.40 94 1007.7
20260506094558 8 288 0.0 3.2 0.33 2.18 1.37 94 1007.7
20260506094058 8 317 0.0 3.2 0.36 2.18 1.37 94 1007.7
20260506093557 8 313 0.0 3.2 0.38 2.16 1.35 94 1007.6
20260506093057 8 294 0.0 1.6 0.41 2.16 1.35 94 1007.6
20260506092557 8 323 0.0 1.6 0.43 2.13 1.32 94 1007.5
20260506092056 8 289 1.6 4.8 0.43 2.11 1.30 94 1007.5
20260506091556 8 316 1.6 8.0 0.43 2.08 1.27 94 1007.4
20260506091056 8 293 1.6 6.4 0.46 2.06 1.24 94 1007.4
20260506090556 8 300 1.6 4.8 0.43 2.01 1.19 94 1007.3
20260506090055 8 300 1.6 9.7 0.43 1.98 1.17 94 1007.2
20260506085557 8 317 1.6 11.3 0.41 1.96 1.12 94 1007.1
20260506085055 8 304 1.6 11.3 0.43 1.93 1.09 94 1007.0
20260506084555 8 333 1.6 6.4 0.43 1.88 1.04 94 1006.8
20260506084054 9 313 1.6 9.7 0.43 1.85 1.02 94 1006.8
20260506083554 9 42 1.6 9.7 0.41 1.80 0.97 95 1006.7
20260506083054 9 313 1.6 8.0 0.43 1.78 0.94 95 1006.5
20260506082553 9 313 1.6 4.8 0.41 1.73 0.89 95 1006.4
20260506082053 9 308 0.0 3.2 0.41 1.70 0.86 95 1006.3
20260506081553 9 307 0.0 3.2 0.43 1.68 0.84 95 1006.3
20260506081053 9 314 0.0 1.6 0.43 1.63 0.79 95 1006.2
20260506080552 9 315 0.0 0.0 0.43 1.60 0.76 95 1006.2
20260506073051 9 306 0.0 0.0 0.33 1.35 0.51 95 1005.7
20260506072550 9 306 0.0 1.6 0.33 1.32 0.48 95 1005.7
20260506072050 9 304 0.0 1.6 0.33 1.30 0.46 95 1005.8
20260506071550 9 296 0.0 4.8 0.30 1.24 0.41 95 1005.6
20260506071050 9 319 1.6 6.4 0.25 1.19 0.36 95 1005.6
20260506070549 9 307 0.0 3.2 0.25 1.17 0.33 95 1005.5
20260506062047 9 319 0.0 0.0 0.10 0.97 0.13 95 1005.4
20260506061547 9 319 0.0 0.0 0.08 0.94 0.10 95 1005.4
20260506061046 9 320 0.0 0.0 0.08 0.94 0.10 95 1005.3
20260506060546 9 320 0.0 0.0 0.05 0.91 0.08 95 1005.2
20260506051043 8 320 0.0 0.0 0.00 0.86 0.03 95 1004.9
20260506050543 8 320 0.0 0.0 0.00 0.86 0.03 95 1004.8
20260506045042 8 319 0.0 0.0 0.00 0.97 0.03 95 1004.8
20260506044542 8 320 0.0 0.0 0.00 0.97 0.03 95 1004.8
20260506044041 8 320 0.0 0.0 0.00 0.97 0.03 95 1004.9
20260506043541 8 320 0.0 0.0 0.00 0.97 0.03 95 1004.9
20260506043041 8 319 0.0 0.0 0.00 0.97 0.03 95 1004.9
20260506042541 8 319 0.0 0.0 0.00 0.97 0.03 95 1004.9
20260506042040 8 320 0.0 0.0 0.00 0.97 0.03 95 1005.0
20260506041540 8 319 0.0 0.0 0.00 0.97 0.03 95 1005.0
20260506041040 8 320 0.0 0.0 0.00 0.97 0.03 95 1005.0
20260506040540 8 320 0.0 0.0 0.00 0.97 0.03 95 1005.1
20260506040039 8 320 0.0 0.0 0.00 0.97 0.03 95 1005.1
20260506035539 8 319 0.0 0.0 0.00 1.27 0.03 95 1005.1
20260506035039 8 320 0.0 0.0 0.00 1.27 0.03 95 1005.1
20260506034539 8 320 0.0 0.0 0.00 1.27 0.03 95 1005.1
20260506034038 8 319 0.0 0.0 0.00 1.27 0.03 95 1005.1
20260506033538 8 320 0.0 0.0 0.00 1.27 0.03 95 1005.1
20260506033038 8 320 0.0 0.0 0.00 1.27 0.03 95 1005.1
20260506032537 8 320 0.0 0.0 0.00 1.27 0.03 95 1005.2
20260506032037 8 320 0.0 0.0 0.00 1.27 0.03 95 1005.3
20260506031537 8 319 0.0 0.0 0.00 1.27 0.03 95 1005.3
20260506031037 8 319 0.0 0.0 0.00 1.27 0.03 95 1005.3
20260506030536 8 320 0.0 0.0 0.00 1.27 0.03 95 1005.3
20260506030036 8 319 0.0 0.0 0.03 1.27 0.03 95 1005.4
20260506025536 8 320 0.0 0.0 0.03 1.50 0.03 95 1005.5
20260506025036 8 320 0.0 0.0 0.03 1.50 0.03 95 1005.4
20260506024535 8 319 0.0 0.0 0.03 1.50 0.03 95 1005.4
20260506024035 8 320 0.0 0.0 0.03 1.50 0.03 95 1005.4
20260506023535 8 319 0.0 0.0 0.03 1.50 0.03 95 1005.6
20260506023034 8 320 0.0 0.0 0.03 1.50 0.03 95 1005.7
20260506022534 8 320 0.0 0.0 0.03 1.50 0.03 94 1005.7
20260506022034 8 320 0.0 0.0 0.03 1.50 0.03 94 1005.9
20260506021534 8 319 0.0 0.0 0.03 1.50 0.03 94 1005.9
20260506021033 8 319 0.0 0.0 0.03 1.50 0.03 94 1005.9
20260506020533 9 320 0.0 0.0 0.03 1.50 0.03 94 1005.9
20260506020033 9 319 0.0 0.0 0.00 1.47 0.00 95 1005.9
20260506015533 9 319 0.0 0.0 0.00 1.75 0.00 94 1006.0
20260506015032 9 320 0.0 0.0 0.00 1.75 0.00 94 1006.0
20260506014532 9 319 0.0 0.0 0.00 1.75 0.00 94 1006.1
20260506014032 9 320 0.0 0.0 0.00 1.75 0.00 94 1006.1
20260506013532 9 320 0.0 0.0 0.00 1.75 0.00 94 1006.2
20260506013031 9 319 0.0 0.0 0.00 1.75 0.00 94 1006.2
20260506012531 10 319 0.0 0.0 0.00 1.75 0.00 94 1006.3
20260506012031 10 320 0.0 0.0 0.00 1.75 0.00 94 1006.3
20260506011530 10 320 0.0 0.0 0.00 1.75 0.00 94 1006.4
20260506011030 10 320 0.0 0.0 0.00 1.75 0.00 94 1006.4
20260506010530 10 319 0.0 0.0 0.00 1.75 0.00 94 1006.6
20260506010030 10 320 0.0 0.0 0.00 1.75 0.00 94 1006.7
20260506005529 10 320 0.0 0.0 0.00 2.06 0.00 94 1006.8
20260506005029 10 319 0.0 0.0 0.00 2.06 0.00 94 1006.9
20260506004529 10 319 0.0 0.0 0.00 2.06 0.00 94 1006.9
20260506004029 10 320 0.0 0.0 0.00 2.06 0.00 94 1007.0
20260506003528 10 320 0.0 0.0 0.00 2.06 0.00 94 1007.0
20260506003028 10 320 0.0 0.0 0.00 2.06 0.00 94 1007.2
20260506002528 10 320 0.0 0.0 0.00 2.06 0.00 94 1007.1
20260506002028 10 320 0.0 0.0 0.00 2.06 0.00 94 1007.2
20260506001527 10 320 0.0 0.0 0.00 2.06 0.00 94 1007.4
20260506001027 10 320 0.0 0.0 0.00 2.06 0.00 94 1007.6
20260506000527 10 320 0.0 0.0 0.00 2.06 0.00 94 1007.6
20260506000026 10 320 0.0 0.0 0.00 2.06 0.00 94 1007.5
20260505235526 10 326 0.0 0.0 0.00 2.11 0.00 94 1007.6
20260505235026 10 326 0.0 0.0 0.00 2.11 0.00 94 1007.6
20260505234526 10 326 0.0 0.0 0.00 2.11 0.00 94 1007.6
20260505234025 10 321 0.0 0.0 0.00 2.11 0.00 94 1007.7
20260505233525 10 321 0.0 0.0 0.00 2.11 0.00 94 1007.8
20260505233025 10 321 0.0 0.0 0.00 2.11 0.00 94 1007.8
20260505232525 10 321 0.0 0.0 0.00 2.11 0.00 93 1007.9
20260505232024 10 321 0.0 0.0 0.00 2.11 0.00 94 1007.8
20260505231524 10 321 0.0 1.6 0.00 2.11 0.00 93 1007.9
20260505231024 10 293 0.0 0.0 0.00 2.11 0.00 94 1008.0
20260505230523 10 293 0.0 1.6 0.00 2.11 0.00 93 1008.1
20260505230023 10 302 0.0 3.2 0.00 2.11 0.00 93 1008.0
20260505225523 10 328 0.0 0.0 0.00 2.11 0.00 93 1008.1
20260505225023 10 328 0.0 0.0 0.00 2.11 0.00 93 1008.2
20260505224522 10 327 0.0 0.0 0.03 2.11 0.00 93 1008.2
20260505224022 10 328 0.0 0.0 0.03 2.11 0.00 93 1008.2
20260505223522 10 328 0.0 0.0 0.05 2.11 0.00 93 1008.2
20260505223022 10 11 0.0 0.0 0.05 2.11 0.00 93 1008.3
20260505222521 10 11 0.0 1.6 0.08 2.11 0.00 93 1008.3
20260505222021 10 11 0.0 0.0 0.08 2.11 0.00 93 1008.4
20260505221521 10 11 0.0 0.0 0.08 2.11 0.00 93 1008.4
20260505221021 10 315 0.0 0.0 0.08 2.11 0.00 93 1008.4
20260505220520 10 315 0.0 0.0 0.08 2.11 0.00 93 1008.4
20260505220020 10 315 0.0 0.0 0.08 2.11 2.11 93 1008.5
20260505215520 11 315 0.0 0.0 0.08 2.11 2.11 93 1008.5
20260505215020 11 315 0.0 0.0 0.08 2.11 2.11 93 1008.6
20260505214519 11 315 0.0 0.0 0.05 2.08 2.08 92 1008.7
20260505214019 11 315 0.0 0.0 0.05 2.08 2.08 92 1008.6
20260505213519 11 315 0.0 3.2 0.03 2.06 2.06 92 1008.8
20260505213018 11 303 0.0 0.0 0.03 2.06 2.06 92 1008.7
20260505212518 11 304 0.0 0.0 0.00 2.03 2.03 92 1008.8
20260505212018 11 304 0.0 0.0 0.00 2.03 2.03 92 1008.8
20260505211518 11 303 0.0 3.2 0.00 2.03 2.03 92 1008.6
20260505211017 11 298 0.0 1.6 0.00 2.03 2.03 92 1008.4
20260505210518 10 298 0.0 1.6 0.00 2.03 2.03 92 1008.4
20260505210017 10 298 0.0 1.6 0.00 2.03 2.03 92 1008.4
20260505205516 10 298 0.0 0.0 0.00 2.03 2.03 92 1008.5
20260505205016 10 298 0.0 0.0 0.00 2.03 2.03 93 1008.5
20260505204516 10 298 0.0 0.0 0.00 2.03 2.03 92 1008.4
20260505204016 10 298 0.0 0.0 0.00 2.03 2.03 92 1008.3
20260505203516 10 298 0.0 0.0 0.00 2.03 2.03 92 1008.4
20260505203015 10 298 0.0 0.0 0.00 2.03 2.03 91 1008.4
20260505202515 10 298 0.0 0.0 0.00 2.03 2.03 92 1008.3
20260505202015 10 298 0.0 0.0 0.00 2.03 2.03 92 1008.4
20260505201514 10 298 0.0 0.0 0.00 2.03 2.03 92 1008.4
20260505201014 10 298 0.0 0.0 0.00 2.03 2.03 92 1008.3
20260505200514 10 298 0.0 1.6 0.00 2.03 2.03 92 1008.3
20260505200014 10 298 0.0 1.6 0.00 2.03 2.03 92 1008.2